Starlink 5628

operational
NORAD ID: 55466 Int'l Des: 2023-015 Owner: SPXS Country: US Constellation: starlink
LEOCIRCULAR

Starlink 5628について

説明を読み込み中...

リアルタイム位置

3D地球を読み込み中...

次回通過

高度履歴

Altitude vs Time

uPlot chart will show altitude changes over time

軌道要素

1 55466U 23015T 25349.56874735 .00000060 00000-0 19493-4 0 9991
2 55466 43.0047 62.7660 0001357 269.0290 91.0397 15.02536666158101
Epoch: Dec 15, 2025 • Age: 30 hours

現在のステータス

高度 558.7 km
速度 7.58 km/s
衛星直下点 0.36°N, 31.08°E
打ち上げ日 Feb 2, 2023
運用期間 2.8 years
タイプ internet

技術仕様

分類 Payload
質量 305.00 kg
乾燥質量 290.00 kg
総質量 305.00 kg
長さ 0.20 m
直径 2.80 m
スパン 9.00 m
形状 Box + pan
製造者 SPXS
バスタイプ Starlink
フェーズステータス In Orbit
所有者/国 SPXS/US

大規模コンステレーション

Loading constellations...